Location: Chiroubles
(46.1812°N, 4.6660°E)
Time: 02:30:31
(UTC+00:00)

Cosmos 2219 Rocket - Pass Details

Date: 15 August 2020
Orbit: 826 x 848 km, 71.0° (Epoch: 27 September)

Event Time Altitude Azimuth Distance (km) Brightness Sun altitude
Rises 19:51:25 0° 341° (NNW) 3,416 6.2 -10.4°
Reaches altitude 10° 19:55:54 10° 14° (NNE) 2,480 4.9 -11.0°
Maximum altitude 19:57:47 12° 34° (NE) 2,367 4.5 -11.3°
Drops below altitude 10° 19:59:41 10° 54° (NE) 2,479 4.4 -11.6°
Enters shadow 20:02:41 - 78° (ENE) 3,033 4.7 -12.0°
